TimeCDT,TemperatureF,Dew PointF,Humidity,Sea Level PressureIn,VisibilityMPH,Wind Direction,Wind SpeedMPH,Gust SpeedMPH,PrecipitationIn,Events,Conditions,WindDirDegrees,DateUTC
12:05 AM,33.8,30.2,87,30.47,2.5,North,4.6,-,0.00,Snow,Light Snow,360,2013-05-02 05:05:00
12:15 AM,33.8,30.2,87,30.46,1.2,Variable,3.5,-,0.00,Snow,Light Snow,0,2013-05-02 05:15:00
12:26 AM,32.0,30.2,93,30.47,1.0,Variable,3.5,-,0.01,Snow,Light Snow,0,2013-05-02 05:26:00
12:36 AM,32.0,30.2,93,30.48,1.0,Variable,3.5,-,0.02,Snow,Light Snow,0,2013-05-02 05:36:00
12:51 AM,32.0,30.2,93,30.47,0.8,Variable,4.6,-,0.04,Snow,Light Snow,0,2013-05-02 05:51:00
12:53 AM,32.0,30.0,92,30.53,0.8,Variable,4.6,-,0.04,Snow,Light Snow,0,2013-05-02 05:53:00
1:07 AM,32.0,30.2,93,30.48,0.8,Variable,3.5,-,0.01,Snow,Light Snow,0,2013-05-02 06:07:00
1:53 AM,32.0,30.0,92,30.53,0.5,Variable,3.5,-,0.09,Fog-Snow,Snow,0,2013-05-02 06:53:00
2:40 AM,30.2,30.2,100,30.49,0.5,Variable,3.5,-,0.08,Fog-Snow,Snow,0,2013-05-02 07:40:00
2:53 AM,30.9,30.0,96,30.54,0.5,North,3.5,-,0.11,Fog-Snow,Snow,10,2013-05-02 07:53:00
3:24 AM,30.2,28.4,93,30.48,0.5,North,6.9,-,0.04,Fog-Snow,Snow,360,2013-05-02 08:24:00
3:53 AM,30.9,28.9,92,30.54,0.8,Variable,4.6,-,0.07,Snow,Light Snow,0,2013-05-02 08:53:00
4:53 AM,30.0,28.0,92,30.53,1.0,Calm,Calm,-,0.06,Snow,Light Snow,0,2013-05-02 09:53:00
5:02 AM,30.2,28.4,93,30.48,0.5,Calm,Calm,-,0.02,Fog-Snow,Snow,0,2013-05-02 10:02:00
5:30 AM,30.2,28.4,93,30.48,0.5,Variable,4.6,-,0.07,Fog-Snow,Snow,0,2013-05-02 10:30:00
5:53 AM,30.0,28.0,92,30.53,0.5,Variable,4.6,-,0.10,Fog-Snow,Snow,0,2013-05-02 10:53:00
6:00 AM,30.2,26.6,86,30.48,0.5,Variable,5.8,-,0.01,Fog-Snow,Snow,0,2013-05-02 11:00:00
6:30 AM,30.2,28.4,93,30.50,0.5,Variable,3.5,-,0.07,Fog-Snow,Snow,0,2013-05-02 11:30:00
6:45 AM,30.2,28.4,93,30.49,0.5,Variable,5.8,-,0.11,Fog-Snow,Snow,0,2013-05-02 11:45:00
6:53 AM,30.0,28.0,92,30.54,0.2,Calm,Calm,-,0.14,Fog-Snow,Heavy Snow,0,2013-05-02 11:53:00
7:53 AM,30.0,28.0,92,30.54,0.2,Variable,3.5,-,0.20,Fog-Snow,Heavy Snow,0,2013-05-02 12:53:00
8:17 AM,30.2,28.4,93,30.50,0.2,Variable,3.5,-,0.04,Fog-Snow,Snow,0,2013-05-02 13:17:00
8:29 AM,30.2,28.4,93,30.50,0.2,Variable,3.5,-,0.05,Fog-Snow,Snow,0,2013-05-02 13:29:00
8:53 AM,30.0,27.0,88,30.56,0.5,Variable,4.6,-,0.07,Fog-Snow,Snow,0,2013-05-02 13:53:00
9:06 AM,30.2,26.6,86,30.50,0.5,Variable,4.6,-,0.01,Fog-Snow,Light Snow,0,2013-05-02 14:06:00
9:14 AM,30.2,26.6,86,30.50,0.8,Variable,5.8,-,0.01,Snow,Light Snow,0,2013-05-02 14:14:00
9:53 AM,30.0,27.0,88,30.55,0.8,Variable,4.6,-,0.03,Snow,Light Snow,0,2013-05-02 14:53:00
10:46 AM,30.2,28.4,93,30.51,1.0,Variable,4.6,-,0.02,Snow,Light Snow,0,2013-05-02 15:46:00
10:53 AM,30.9,28.0,89,30.56,1.0,Variable,6.9,-,0.02,Snow,Light Snow,0,2013-05-02 15:53:00
11:00 AM,30.2,28.4,93,30.51,0.8,Variable,6.9,-,0.00,Snow,Light Snow,0,2013-05-02 16:00:00
6:22 PM,30.2,26.6,86,30.45,3.0,NE,5.8,-,N/A,Snow,Light Snow,40,2013-05-02 23:22:00
6:33 PM,30.2,26.6,86,30.45,8.0,NE,4.6,-,N/A,,Overcast,40,2013-05-02 23:33:00
6:53 PM,30.9,27.0,85,30.50,10.0,NNE,5.8,-,N/A,,Overcast,30,2013-05-02 23:53:00
7:53 PM,30.9,27.0,85,30.50,8.0,NNE,4.6,-,N/A,,Overcast,30,2013-05-03 00:53:00
8:53 PM,30.0,27.0,88,30.50,10.0,Variable,6.9,-,0.00,,Overcast,0,2013-05-03 01:53:00
9:53 PM,30.0,27.0,88,30.50,10.0,Calm,Calm,-,N/A,,Overcast,0,2013-05-03 02:53:00
10:53 PM,30.0,27.0,88,30.49,10.0,Variable,4.6,-,N/A,,Overcast,0,2013-05-03 03:53:00
11:18 PM,30.2,26.6,86,30.42,7.0,Calm,Calm,-,0.00,Snow,Light Snow,0,2013-05-03 04:18:00
11:53 PM,30.0,27.0,88,30.47,6.0,Variable,4.6,-,0.00,Snow,Light Snow,0,2013-05-03 04:53:00